Regional Weather Roundup
Issued by NWS

Home | Current Version | Previous Version | Graphics & Text | Print | Product List | Glossary Off
Versions: 1 2 3 4 5 6 7 8 9 10 11 12 13 14 15 16 17 18 19 20 21 22 23 24 25 26 27 28 29 30 31 32 33 34 35 36 37 38 39 40 41 42 43 44 45 46 47 48 49 50

000
ASUS43 KTOP 161108
RWRKS

WEATHER ROUNDUP FOR KANSAS
NATIONAL WEATHER SERVICE GOODLAND KS
500 AM CST SAT DEC 16 2017

NOTE:  "FAIR" INDICATES FEW OR NO CLOUDS BELOW 12,000 FEET WITH NO
SIGNIFICANT WEATHER AND/OR OBSTRUCTIONS TO VISIBILITY.

KSZ001>006-013>018-027>032-041>047-161200-
NORTHWEST KANSAS

CITY           SKY/WX    TMP DP  RH WIND       PRES   REMARKS
GOODLAND       CLOUDY    30  12  47 NW9       29.73F
HAYS           CLOUDY    32  18  56 W10       29.77F WCI  24
HILL CITY      CLOUDY    28  13  53 W6        29.75F
RUSSELL        CLOUDY    32  20  61 S16       29.74F WCI  21
$$

KSZ061>065-074>080-084>089-161200-
SOUTHWEST KANSAS

CITY           SKY/WX    TMP DP  RH WIND       PRES   REMARKS
DODGE CITY     CLOUDY    30  18  60 SW15      29.79F WCI  19
ELKHART        CLOUDY    34  21  59 W15       29.76F WCI  24
GARDEN CITY    CLOUDY    26  15  63 S8        29.76F
GREAT BEND     CLOUDY    31  20  63 SW7       29.79F
LIBERAL        CLOUDY    28  20  71 SW12      29.80F WCI  18
PRATT          CLOUDY    29  20  67 SW9       29.82F
$$

KSZ066>073-081>083-090>101-161200-
SOUTHEAST KANSAS

CITY           SKY/WX    TMP DP  RH WIND       PRES   REMARKS
CHANUTE        CLEAR     35  23  61 S12       29.94F WCI  27
COFFEYVILLE    CLEAR     38  24  57 S16       29.98F WCI  29
HUTCHINSON     CLOUDY    29  22  75 S6        29.84F
MEDICINE LODGE   N/A     32  23  69 S6        29.85F
NEWTON         CLOUDY    34  23  64 S17       29.85F WCI  23
PARSONS        CLEAR     35  24  64 S5        29.97F
WICHITA INTL   CLOUDY    29  23  78 S9        29.87F
WICHITA JABRA  CLOUDY    36  25  64 S13       29.87F WCI  27
WICHITA MCCONL CLOUDY    32  23  68 SW9       29.87F
WINFIELD       CLEAR     37  26  64 S9        29.92F
$$

KSZ007>012-019>026-033>040-048>060-102>105-161200-
NORTHEAST KANSAS

CITY           SKY/WX    TMP DP  RH WIND       PRES   REMARKS
CONCORDIA      CLOUDY    33  21  61 SW6       29.78F
EMPORIA        CLOUDY    33  23  66 S12       29.87F WCI  24
LAWRENCE       CLEAR     38  25  59 S10       29.87F WCI  31
MANHATTAN      CLEAR     37  24  59 SW10      29.82F WCI  30
MARYSVILLE     CLEAR     36  25  64 SW12      29.78F WCI  27
OLATHE IND     CLEAR     38  24  57 S16       29.89F WCI  29
OLATHE EXE     CLEAR     37  24  59 SW10      29.88F WCI  30
SALINA         CLOUDY    36  24  62 S12       29.81F WCI  28
TOPEKA BILLARD CLEAR    N/A N/A N/A S5        29.85F
TOPEKA FORBES  CLEAR     36  25  64 S14       29.84F WCI  27
$$




USA.gov is the U.S. government's official web portal to all federal, state and local government web resources and services.